W0DXV Weather Reports


Display with metric or nautical units.
time (UTC)temp
F
wind
direction
speed
MPH
gust
MPH
rain 1hr
in
rain 24hr
in
rain mn
in
humidity
%
barometer
mb
20260509033332 53 302 0.0 0.0 0.00 0.00 0.00 93 1010.9
20260509032829 53 302 0.0 0.0 0.00 0.00 0.00 92 1010.9
20260509032326 53 302 0.0 0.0 0.00 0.00 0.00 92 1010.7
20260509031824 53 302 0.0 0.0 0.00 0.00 0.00 92 1011.0
20260509031321 53 302 0.0 0.0 0.00 0.00 0.00 92 1010.7
20260509030819 53 302 0.0 0.0 0.00 0.00 0.00 92 1010.7
20260509030317 53 303 0.0 1.0 0.00 0.00 0.00 92 1010.8
20260509025813 53 302 0.0 0.0 0.00 0.00 0.00 91 1010.9
20260509025309 53 302 0.0 0.0 0.00 0.00 0.00 91 1010.7
20260509024804 53 259 0.0 0.0 0.00 0.00 0.00 91 1010.9
20260509024301 53 233 0.0 0.0 0.00 0.00 0.00 91 1010.8
20260509023758 53 233 0.0 0.0 0.00 0.00 0.00 91 1010.9
20260509023255 53 233 0.0 0.0 0.00 0.00 0.00 91 1011.1
20260509022751 54 233 0.0 0.0 0.00 0.00 0.00 90 1011.2
20260509022249 54 233 0.0 0.0 0.00 0.00 0.00 90 1011.0
20260509021746 54 233 0.0 0.0 0.00 0.00 0.00 90 1010.9
20260509021243 54 233 0.0 0.0 0.00 0.00 0.00 89 1011.1
20260509020740 54 233 0.0 0.0 0.00 0.00 0.00 89 1011.1
20260509020238 54 233 0.0 0.0 0.00 0.00 0.00 89 1011.0
20260509015736 55 233 0.0 0.0 0.00 0.00 0.00 89 1011.1
20260509015234 55 233 0.0 0.0 0.00 0.00 0.00 89 1011.1
20260509014730 55 233 0.0 0.0 0.00 0.00 0.00 87 1011.0
20260509014227 55 233 0.0 0.0 0.00 0.00 0.00 87 1011.2
20260509013723 55 233 0.0 0.0 0.00 0.00 0.00 86 1011.1
20260509013219 55 232 0.0 0.0 0.00 0.00 0.00 85 1010.8
20260509012716 55 233 0.0 0.0 0.00 0.00 0.00 85 1010.9
20260509012212 55 233 0.0 0.0 0.00 0.00 0.00 85 1010.9
20260509011710 55 233 0.0 0.0 0.00 0.00 0.00 85 1010.9
20260509011208 56 233 0.0 0.0 0.00 0.00 0.00 85 1010.8
20260509010705 56 233 0.0 0.0 0.00 0.00 0.00 84 1010.8
20260509010201 57 233 0.0 0.0 0.00 0.00 0.00 83 1010.9
20260509005659 57 233 0.0 0.0 0.00 0.00 0.00 82 1010.7
20260509005156 57 233 0.0 0.0 0.00 0.00 0.00 81 1010.4
20260509004651 57 233 0.0 0.0 0.00 0.00 0.00 81 1010.4
20260509004148 58 233 0.0 0.0 0.00 0.00 0.00 80 1010.5
20260509003647 58 233 0.0 0.0 0.00 0.00 0.00 80 1010.6
20260509003144 59 233 0.0 0.0 0.00 0.00 0.00 79 1010.7
20260509002641 59 233 0.0 0.0 0.00 0.00 0.00 78 1010.6
20260509002138 59 233 0.0 0.0 0.00 0.00 0.00 76 1010.4
20260509001636 60 232 0.0 0.0 0.00 0.00 0.00 74 1010.5
20260509001131 60 232 0.0 0.0 0.00 0.00 0.00 74 1010.7
20260509000630 60 232 0.0 0.0 0.00 0.00 0.00 73 1010.3
20260509000126 61 232 0.0 0.0 0.00 0.00 0.00 73 1010.3
20260508235624 61 232 0.0 1.0 0.00 0.00 0.00 71 1010.1
20260508235120 62 232 0.0 0.0 0.00 0.00 0.00 71 1010.2
20260508234618 63 233 0.0 0.0 0.00 0.00 0.00 69 1010.2
20260508234114 63 232 0.0 0.0 0.00 0.00 0.00 67 1010.2
20260508233613 64 232 0.0 0.0 0.00 0.00 0.00 64 1010.2
20260508233110 64 232 0.0 0.0 0.00 0.00 0.00 58 1009.9
20260508232607 65 232 0.0 0.0 0.00 0.00 0.00 60 1010.4
20260508232104 65 232 0.0 0.0 0.00 0.00 0.00 54 1010.3
20260508231602 66 232 0.0 0.0 0.00 0.00 0.00 52 1010.3
20260508231058 66 232 0.0 1.0 0.00 0.00 0.00 51 1010.4
20260508230555 66 241 0.0 0.0 0.00 0.00 0.00 49 1010.4
20260508230051 66 223 0.0 1.0 0.00 0.00 0.00 49 1010.4
20260508225549 66 223 0.0 0.0 0.00 0.00 0.00 44 1010.4
20260508225046 66 222 0.0 0.0 0.00 0.00 0.00 44 1010.3
20260508224544 67 222 0.0 0.0 0.00 0.00 0.00 46 1010.2
20260508224041 67 222 0.0 1.0 0.00 0.00 0.00 46 1010.4
20260508223539 67 246 1.0 1.0 0.00 0.00 0.00 44 1010.6
20260508223035 67 249 0.0 1.0 0.00 0.00 0.00 41 1010.4
20260508222533 67 249 0.0 0.0 0.00 0.00 0.00 46 1010.4
20260508222030 67 249 0.0 0.0 0.00 0.00 0.00 42 1010.4
20260508221526 67 249 0.0 0.0 0.00 0.00 0.00 41 1010.4
20260508221022 68 244 1.0 1.0 0.00 0.00 0.00 42 1010.1
20260508220518 68 237 0.0 1.0 0.00 0.00 0.00 50 1010.4
20260508220015 67 226 0.0 0.0 0.00 0.00 0.00 48 1010.2
20260508215512 68 228 1.0 1.0 0.00 0.00 0.00 53 1010.0
20260508215009 68 235 0.0 0.0 0.00 0.00 0.00 40 1009.8
20260508214506 68 232 1.0 2.0 0.00 0.00 0.00 44 1010.1
20260508214002 69 256 0.0 0.0 0.00 0.00 0.00 45 1010.0
20260508213500 69 256 0.0 1.0 0.00 0.00 0.00 45 1010.2
20260508212955 69 179 1.0 1.0 0.00 0.00 0.00 44 1010.3
20260508212452 69 182 1.0 1.0 0.00 0.00 0.00 37 1010.2
20260508211948 70 274 0.0 0.0 0.00 0.00 0.00 40 1010.5
20260508211443 70 243 1.0 2.0 0.00 0.00 0.00 40 1010.6
20260508210941 69 210 1.0 2.0 0.00 0.00 0.00 37 1010.5
20260508210437 69 253 0.0 1.0 0.00 0.00 0.00 38 1010.3
20260508205934 70 262 1.0 1.0 0.00 0.00 0.00 34 1010.4
20260508205431 70 247 1.0 1.0 0.00 0.00 0.00 34 1010.4
20260508204927 70 248 0.0 1.0 0.00 0.00 0.00 34 1010.2
20260508204425 70 104 1.0 2.0 0.00 0.00 0.00 30 1010.5
20260508203920 71 33 1.0 1.0 0.00 0.00 0.00 33 1010.6
20260508203416 71 272 2.0 2.0 0.00 0.00 0.00 36 1010.6
20260508202912 71 259 1.0 1.0 0.00 0.00 0.00 33 1010.6
20260508202410 71 331 1.0 1.0 0.00 0.00 0.00 29 1010.8
20260508201907 71 234 1.0 1.0 0.00 0.00 0.00 37 1010.7
20260508201403 71 184 2.0 2.0 0.00 0.00 0.00 31 1011.0
20260508200900 71 108 0.0 1.0 0.00 0.00 0.00 32 1011.3
20260508200357 72 225 2.0 2.0 0.00 0.00 0.00 39 1011.3
20260508195852 72 72 3.0 3.0 0.00 0.00 0.00 32 1011.3
20260508195349 72 211 0.0 1.0 0.00 0.00 0.00 31 1011.2
20260508194845 73 267 1.0 1.0 0.00 0.00 0.00 39 1011.3
20260508194343 72 263 1.0 1.0 0.00 0.00 0.00 30 1011.3
20260508193840 71 221 1.0 2.0 0.00 0.00 0.00 35 1011.4
20260508193336 72 238 3.0 3.0 0.00 0.00 0.00 32 1011.4
20260508192832 71 241 1.0 2.0 0.00 0.00 0.00 32 1011.5
20260508192330 72 232 1.0 1.0 0.00 0.00 0.00 29 1011.5
20260508191827 72 227 1.0 2.0 0.00 0.00 0.00 29 1011.6
20260508191324 72 239 1.0 1.0 0.00 0.00 0.00 34 1011.7
20260508190821 72 252 1.0 1.0 0.00 0.00 0.00 33 1011.7
20260508190318 72 260 2.0 2.0 0.00 0.00 0.00 33 1011.9
20260508185814 72 109 3.0 3.0 0.00 0.00 0.00 33 1012.2
20260508185312 71 239 1.0 1.0 0.00 0.00 0.00 36 1012.1
20260508184809 71 277 1.0 1.0 0.00 0.00 0.00 34 1012.0
20260508184306 71 216 2.0 2.0 0.00 0.00 0.00 39 1012.0
20260508183803 71 244 1.0 1.0 0.00 0.00 0.00 33 1012.0
20260508183259 71 284 1.0 1.0 0.00 0.00 0.00 32 1012.0
20260508182755 70 230 0.0 1.0 0.00 0.00 0.00 30 1012.3
20260508182252 70 277 1.0 1.0 0.00 0.00 0.00 33 1012.3
20260508181748 71 242 1.0 1.0 0.00 0.00 0.00 32 1012.5
20260508181245 70 248 1.0 1.0 0.00 0.00 0.00 32 1012.6
20260508180742 70 259 1.0 1.0 0.00 0.00 0.00 35 1012.6
20260508180238 71 278 2.0 2.0 0.00 0.00 0.00 37 1012.5
20260508175735 70 280 0.0 1.0 0.00 0.00 0.00 39 1012.7
20260508175231 70 224 1.0 2.0 0.00 0.00 0.00 35 1012.8
20260508174730 69 278 1.0 1.0 0.00 0.00 0.00 35 1012.8
20260508174227 69 232 3.0 3.0 0.00 0.00 0.00 39 1012.7
20260508173722 70 283 1.0 2.0 0.00 0.00 0.00 39 1012.8
20260508173219 68 34 2.0 2.0 0.00 0.00 0.00 36 1012.9
20260508172716 69 144 1.0 2.0 0.00 0.00 0.00 39 1013.0
20260508172213 69 244 1.0 2.0 0.00 0.00 0.00 44 1013.3
20260508171709 69 240 2.0 2.0 0.00 0.00 0.00 35 1013.1
20260508171206 68 119 3.0 3.0 0.00 0.00 0.00 32 1013.2
20260508170703 67 228 2.0 2.0 0.00 0.00 0.00 35 1013.4
20260508170201 69 190 2.0 2.0 0.00 0.00 0.00 34 1013.6
20260508165657 67 240 2.0 2.0 0.00 0.00 0.00 39 1013.2
20260508165154 68 34 1.0 1.0 0.00 0.00 0.00 34 1013.3
20260508164650 67 153 1.0 1.0 0.00 0.00 0.00 34 1013.4
20260508164147 67 283 0.0 1.0 0.00 0.00 0.00 33 1013.2
20260508163645 66 27 2.0 2.0 0.00 0.00 0.00 34 1013.7
20260508163142 66 177 1.0 1.0 0.00 0.00 0.00 38 1013.6
20260508162637 65 294 1.0 1.0 0.00 0.00 0.00 40 1013.9
20260508162135 66 338 4.0 5.0 0.00 0.00 0.00 35 1014.0
20260508161632 66 159 0.0 1.0 0.00 0.00 0.00 38 1014.1
20260508161129 67 232 2.0 2.0 0.00 0.00 0.00 46 1014.3
20260508160628 66 233 0.0 1.0 0.00 0.00 0.00 41 1014.3
20260508160125 64 108 1.0 2.0 0.00 0.00 0.00 39 1014.3
20260508155622 64 84 2.0 2.0 0.00 0.00 0.00 40 1014.5
20260508155118 64 169 1.0 1.0 0.00 0.00 0.00 42 1014.5
20260508154615 64 336 1.0 2.0 0.00 0.00 0.00 40 1014.5
20260508154112 66 218 1.0 1.0 0.00 0.00 0.00 46 1014.6
20260508153609 64 28 1.0 1.0 0.00 0.00 0.00 42 1014.5
20260508153106 65 146 2.0 2.0 0.00 0.00 0.00 41 1014.5
20260508152603 65 116 1.0 1.0 0.00 0.00 0.00 45 1014.4
20260508152058 64 249 0.0 0.0 0.00 0.00 0.00 40 1014.6
20260508151555 64 34 3.0 5.0 0.00 0.00 0.00 42 1014.6
20260508151052 64 267 1.0 1.0 0.00 0.00 0.00 44 1014.7
20260508150549 63 30 1.0 1.0 0.00 0.00 0.00 43 1014.7
20260508150045 63 286 1.0 1.0 0.00 0.00 0.00 43 1014.7
20260508145542 64 262 0.0 1.0 0.00 0.00 0.00 52 1014.8
20260508145038 64 18 2.0 3.0 0.00 0.00 0.00 53 1014.7
20260508144536 63 263 0.0 0.0 0.00 0.00 0.00 65 1014.8
20260508144033 62 49 1.0 2.0 0.00 0.00 0.00 52 1014.8
20260508143531 61 257 1.0 2.0 0.00 0.00 0.00 61 1014.7
20260508143027 62 235 1.0 2.0 0.00 0.00 0.00 70 1014.6
20260508142524 61 271 1.0 1.0 0.00 0.00 0.00 62 1014.8
20260508142021 62 262 1.0 1.0 0.00 0.00 0.00 61 1014.7
20260508141517 61 214 1.0 2.0 0.00 0.00 0.00 67 1014.7
20260508141015 60 35 1.0 2.0 0.00 0.00 0.00 60 1014.6
20260508140512 61 155 1.0 1.0 0.00 0.00 0.00 60 1014.4
20260508140008 60 46 1.0 1.0 0.00 0.00 0.00 59 1014.6
20260508135504 60 40 0.0 1.0 0.00 0.00 0.00 61 1014.7
20260508135001 60 98 1.0 1.0 0.00 0.00 0.00 65 1014.4
20260508134457 60 240 1.0 1.0 0.00 0.00 0.00 77 1014.5
20260508133954 59 14 1.0 1.0 0.00 0.00 0.00 70 1014.3
20260508133451 58 289 1.0 2.0 0.00 0.00 0.00 72 1014.6
20260508132948 57 37 1.0 1.0 0.00 0.00 0.00 73 1014.6
20260508132446 56 142 1.0 1.0 0.00 0.00 0.00 79 1014.4
20260508131943 53 133 1.0 2.0 0.00 0.00 0.00 88 1014.6
20260508131438 53 48 1.0 1.0 0.00 0.00 0.00 99 1014.6
20260508130935 52 49 1.0 1.0 0.00 0.00 0.00 99 1014.3
20260508130432 51 103 1.0 1.0 0.00 0.00 0.00 99 1014.5
20260508125928 52 81 1.0 1.0 0.00 0.00 0.00 99 1014.1
20260508125424 52 182 0.0 0.0 0.00 0.00 0.00 99 1014.3
20260508124922 51 239 0.0 0.0 0.00 0.00 0.00 99 1014.4
20260508124420 51 228 0.0 0.0 0.00 0.00 0.00 99 1014.1
20260508123917 52 228 0.0 0.0 0.00 0.00 0.00 99 1014.3
20260508123416 50 228 0.0 0.0 0.00 0.00 0.00 99 1014.3
20260508122911 51 229 0.0 1.0 0.00 0.00 0.00 99 1014.4
20260508122409 50 238 0.0 0.0 0.00 0.00 0.00 99 1014.3
20260508121906 49 238 0.0 0.0 0.00 0.00 0.00 99 1014.1
20260508121404 48 242 0.0 0.0 0.00 0.00 0.00 99 1014.1
20260508120901 48 242 0.0 0.0 0.00 0.00 0.00 99 1014.0
20260508120359 48 243 0.0 0.0 0.00 0.00 0.00 99 1014.1
20260508115856 48 248 0.0 0.0 0.00 0.00 0.00 99 1014.0
20260508115354 46 249 0.0 0.0 0.00 0.00 0.00 99 1013.9
20260508114850 46 252 0.0 0.0 0.00 0.00 0.00 99 1013.8
20260508114347 44 268 0.0 0.0 0.00 0.00 0.00 99 1013.7
20260508113844 44 256 0.0 0.0 0.00 0.00 0.00 99 1013.6
20260508113342 43 282 0.0 0.0 0.00 0.00 0.00 99 1013.4
20260508112838 43 282 0.0 1.0 0.00 0.00 0.00 99 1013.3
20260508112336 42 292 0.0 0.0 0.00 0.00 0.00 99 1013.3
20260508111832 42 292 0.0 0.0 0.00 0.00 0.00 99 1013.3
20260508111329 42 292 0.0 0.0 0.00 0.00 0.00 99 1013.2
20260508110826 42 292 0.0 0.0 0.00 0.00 0.00 99 1013.2
20260508110324 42 291 0.0 0.0 0.00 0.00 0.00 99 1013.2
20260508105824 41 291 0.0 0.0 0.00 0.00 0.00 99 1013.0
20260508105320 41 291 0.0 0.0 0.00 0.00 0.00 99 1012.7
20260508104817 41 291 0.0 0.0 0.00 0.00 0.00 99 1012.8
20260508104314 41 291 0.0 0.0 0.00 0.00 0.00 99 1012.6
20260508103811 41 291 0.0 0.0 0.00 0.00 0.00 99 1012.4
20260508103308 41 291 0.0 0.0 0.00 0.00 0.00 99 1012.4
20260508102806 41 291 0.0 0.0 0.00 0.00 0.00 99 1012.5
20260508102306 41 291 0.0 0.0 0.00 0.00 0.00 99 1012.2
20260508101801 41 291 0.0 0.0 0.00 0.00 0.00 99 1012.1
20260508101258 41 291 0.0 0.0 0.00 0.00 0.00 99 1012.4
20260508100755 42 291 0.0 0.0 0.00 0.00 0.00 99 1012.3
20260508100254 42 291 0.0 0.0 0.00 0.00 0.00 99 1012.2
20260508095749 42 291 0.0 0.0 0.00 0.00 0.00 99 1012.1
20260508095247 42 292 0.0 0.0 0.00 0.00 0.00 99 1012.1
20260508094744 42 287 0.0 0.0 0.00 0.00 0.00 99 1012.1
20260508094241 42 286 0.0 0.0 0.00 0.00 0.00 99 1011.9
20260508093738 43 287 0.0 0.0 0.00 0.00 0.00 99 1011.9
20260508093235 42 287 0.0 0.0 0.00 0.00 0.00 99 1012.0
20260508092732 43 287 0.0 0.0 0.00 0.00 0.00 99 1011.9
20260508092230 43 286 0.0 0.0 0.00 0.00 0.00 99 1011.7
20260508091728 43 286 0.0 0.0 0.00 0.00 0.00 99 1011.7
20260508091225 43 286 0.0 0.0 0.00 0.00 0.00 99 1011.6
20260508090723 44 286 0.0 0.0 0.00 0.00 0.00 99 1011.6
20260508090220 43 284 0.0 0.0 0.00 0.00 0.00 99 1011.6
20260508085716 44 284 0.0 0.0 0.00 0.00 0.00 99 1011.8
20260508085213 44 284 0.0 0.0 0.00 0.00 0.00 99 1011.7
20260508084709 44 283 0.0 0.0 0.00 0.00 0.00 99 1011.7
20260508084207 45 283 0.0 0.0 0.00 0.00 0.00 99 1011.6
20260508083704 44 283 0.0 0.0 0.00 0.00 0.00 99 1011.5
20260508083202 44 283 0.0 0.0 0.00 0.00 0.00 99 1011.5
20260508082656 44 283 0.0 0.0 0.00 0.00 0.00 99 1011.5
20260508082154 45 283 0.0 0.0 0.00 0.00 0.00 99 1011.3
20260508081651 45 283 0.0 0.0 0.00 0.00 0.00 99 1011.5
20260508081148 45 283 0.0 0.0 0.00 0.00 0.00 99 1011.3
20260508080645 45 283 0.0 0.0 0.00 0.00 0.00 99 1011.1
20260508080143 45 284 0.0 0.0 0.00 0.00 0.00 99 1011.1
20260508075639 45 282 0.0 0.0 0.00 0.00 0.00 99 1011.4
20260508075136 45 283 0.0 0.0 0.00 0.00 0.00 99 1011.1
20260508074634 45 283 0.0 0.0 0.00 0.00 0.00 99 1011.1
20260508074131 45 285 0.0 0.0 0.00 0.00 0.00 99 1011.1
20260508073628 45 285 0.0 0.0 0.00 0.00 0.00 99 1011.3
20260508073126 46 286 0.0 1.0 0.00 0.00 0.00 99 1010.9
20260508072621 46 284 0.0 1.0 0.00 0.00 0.00 99 1011.0
20260508072119 46 275 0.0 0.0 0.00 0.00 0.00 99 1011.1
20260508071616 46 274 0.0 0.0 0.00 0.00 0.00 99 1010.9
20260508071114 46 274 0.0 0.0 0.00 0.00 0.00 99 1011.0
20260508070611 46 275 0.0 0.0 0.00 0.00 0.00 99 1011.0
20260508070110 46 274 0.0 0.0 0.00 0.00 0.00 99 1010.9
20260508065607 46 274 0.0 0.0 0.00 0.00 0.00 99 1010.9
20260508065104 46 272 0.0 0.0 0.00 0.00 0.00 99 1010.7
20260508064602 47 272 0.0 0.0 0.00 0.00 0.00 99 1010.9
20260508064100 47 264 0.0 0.0 0.00 0.00 0.00 99 1011.0
20260508063557 47 265 0.0 0.0 0.00 0.00 0.00 99 1011.0
20260508063055 47 331 0.0 1.0 0.00 0.00 0.00 99 1011.0
20260508062552 47 331 0.0 0.0 0.00 0.00 0.00 99 1010.8
20260508062048 47 331 0.0 0.0 0.00 0.00 0.00 99 1010.9
20260508061546 47 331 0.0 0.0 0.00 0.00 0.00 99 1010.9
20260508061043 47 331 0.0 0.0 0.00 0.00 0.00 99 1010.7
20260508060540 47 331 0.0 0.0 0.00 0.00 0.00 99 1010.8
20260508060038 47 331 0.0 0.0 0.00 0.00 0.00 99 1010.9
20260508055533 47 331 0.0 0.0 0.00 0.00 0.00 99 1010.8
20260508055030 47 331 0.0 0.0 0.00 0.00 0.00 99 1010.8
20260508054526 48 331 0.0 0.0 0.00 0.00 0.00 99 1010.7
20260508054024 48 331 0.0 0.0 0.00 0.00 0.00 99 1010.9
20260508053520 48 331 0.0 0.0 0.00 0.00 0.00 99 1010.8
20260508053019 48 331 0.0 0.0 0.00 0.00 0.00 99 1010.6
20260508052515 48 331 0.0 1.0 0.00 0.00 0.00 99 1010.9
20260508052011 48 331 0.0 0.0 0.00 0.00 0.00 99 1010.7
20260508051503 48 331 0.0 0.0 0.00 0.00 0.00 99 1010.7
20260508050958 49 331 0.0 0.0 0.00 0.00 0.00 99 1010.4
20260508050455 49 331 0.0 0.0 0.00 0.00 0.00 99 1010.6
20260508045951 49 331 0.0 0.0 0.00 1.15 1.15 99 1010.6
20260508045448 49 331 0.0 0.0 0.00 1.15 1.15 99 1010.7
20260508044946 49 332 0.0 0.0 0.00 1.15 1.15 99 1010.7
20260508044443 49 332 0.0 0.0 0.00 1.15 1.15 99 1010.5
20260508043938 49 332 0.0 0.0 0.00 1.15 1.15 99 1010.5
20260508043436 50 333 0.0 0.0 0.00 1.15 1.15 99 1010.5
20260508042932 50 358 0.0 0.0 0.00 1.15 1.15 99 1010.3
20260508042430 50 359 0.0 0.0 0.00 1.15 1.15 99 1010.5
20260508041927 50 1 0.0 0.0 0.00 1.15 1.15 99 1010.6
20260508041423 50 1 0.0 0.0 0.00 1.15 1.15 99 1010.6
20260508040920 50 2 0.0 0.0 0.00 1.15 1.15 99 1010.3
20260508040417 51 264 0.0 0.0 0.00 1.15 1.15 99 1010.1
20260508035915 51 256 0.0 0.0 0.00 1.15 1.15 99 1010.4
20260508035412 50 256 0.0 0.0 0.00 1.15 1.15 99 1010.3
20260508034908 50 260 0.0 0.0 0.00 1.15 1.15 99 1010.1
20260508034406 51 271 0.0 0.0 0.00 1.15 1.15 99 1010.4
20260508033902 51 257 0.0 0.0 0.00 1.15 1.15 99 1010.2